Theta_e
329 328 330 330 325 323 320 317 302 307 306 299 298 300 299 304 302 303 304 306 307 310 311 312 320 317 312 312 313 314 313 313 312 305 308 324 335 338 341 340 343 344 344 345 346 348 349 348 348 348 347 346 345 344 343 343 342 341 340 341 341 342 346 346 346 346 344 341 341 339 341 342 341 339 340 341 341 344 344 342 340 338 341 340 340 340 339 338 340 339 339 339 338 338 338 339 340
327 327 327 326 323 319 313 311 306 302 302 297 299 300 301 302 303 304 304 308 307 309 309 318 320 317 315 315 316 314 315 317 316 319 325 331 337 338 341 342 343 341 344 345 345 347 347 350 347 348 347 346 345 344 343 343 344 342 342 342 341 341 342 346 347 346 344 342 340 339 339 339 340 340 340 341 341 342 344 344 343 342 343 344 343 344 342 341 340 340 339 339 339 338 338 338 338
325 325 325 324 320 318 315 313 301 300 297 295 298 300 301 302 303 305 307 305 308 310 314 317 317 315 312 311 310 310 314 322 323 326 329 334 331 334 340 343 343 343 343 345 346 346 348 348 346 348 347 346 345 345 345 345 343 341 340 341 340 341 346 347 347 347 346 343 342 340 338 338 340 339 340 341 340 341 342 342 342 342 342 342 342 342 342 343 342 342 341 341 341 339 339 339 339
329 324 325 322 314 318 310 307 305 300 297 298 297 301 301 303 304 306 305 309 312 312 314 313 314 315 312 308 312 311 316 318 326 328 326 330 334 337 340 342 344 343 344 346 346 347 349 346 345 348 347 346 346 345 345 343 343 343 341 341 340 340 341 344 346 346 346 344 342 341 338 338 340 339 338 339 340 340 340 342 342 340 340 340 340 341 339 337 337 337 338 338 339 338 338 340 340
325 324 325 321 319 309 310 305 302 301 296 298 297 301 302 305 305 305 306 312 309 308 311 314 314 317 317 315 313 311 315 326 326 331 330 334 339 339 341 343 342 342 342 344 345 347 349 343 345 346 347 346 345 344 344 345 344 343 342 341 340 339 342 344 345 345 345 344 342 341 338 337 338 337 339 339 339 338 338 339 340 340 340 340 340 339 338 339 338 338 339 339 339 339 339 339 339
324 322 322 322 311 312 309 302 300 299 301 302 299 301 303 305 305 307 308 310 310 310 308 314 311 313 314 318 319 314 324 317 328 330 332 333 338 340 342 344 341 340 341 345 346 347 349 342 345 345 347 345 345 345 345 345 344 343 341 340 339 340 344 346 346 346 345 343 341 340 339 338 338 337 337 337 337 340 341 342 342 342 342 342 340 340 342 343 343 342 340 341 340 340 340 339 339
321 318 318 315 310 313 305 302 300 300 300 300 301 302 304 304 306 309 308 308 307 305 304 311 312 313 310 316 320 325 328 329 329 330 335 338 340 341 342 341 342 340 342 344 346 348 349 341 346 347 347 346 345 345 345 344 344 343 342 341 341 340 341 346 345 344 344 343 340 340 339 338 337 337 337 337 338 338 343 343 342 342 341 341 340 340 341 341 341 341 340 340 341 341 339 339 339
319 315 315 309 305 307 302 302 301 302 300 299 300 301 304 304 308 309 307 307 305 305 306 311 313 310 309 315 316 325 328 330 333 335 338 339 339 341 342 340 340 340 341 344 346 347 346 341 345 346 347 346 346 346 346 345 344 343 342 341 341 340 340 345 344 344 344 343 340 339 338 337 337 337 337 337 338 338 340 342 341 340 339 338 339 339 339 339 340 340 339 339 340 339 339 338 338
317 314 311 311 303 304 301 301 301 299 300 299 301 301 304 305 309 309 307 305 305 305 308 311 309 306 309 312 317 324 328 331 333 335 337 338 338 340 340 340 339 340 341 343 346 347 348 340 343 345 346 347 346 346 345 344 344 343 343 342 342 341 338 340 343 342 342 342 340 338 337 336 336 336 337 337 337 337 337 337 339 338 338 339 339 339 339 339 339 340 340 339 339 338 337 338 338
314 313 306 307 307 300 299 299 299 300 300 302 302 303 304 303 306 310 308 304 305 306 310 310 308 305 312 311 315 323 328 331 334 335 337 338 338 339 340 340 341 341 341 343 345 346 346 345 338 341 343 346 347 346 345 344 344 343 342 342 342 341 339 339 340 342 343 343 340 337 337 336 335 335 336 336 336 337 336 337 337 337 338 338 338 338 338 338 338 339 339 339 338 338 338 338 337
308 310 312 306 302 299 299 299 300 299 300 302 303 303 304 304 307 307 307 305 304 307 308 308 306 307 311 312 319 324 328 331 333 332 337 337 339 338 338 340 341 342 340 343 344 346 346 348 340 338 341 343 344 346 345 345 344 343 342 342 342 341 340 339 340 342 342 342 342 339 336 335 335 335 336 336 335 335 336 336 336 337 338 338 337 338 337 337 337 337 338 338 338 337 337 337 337
307 308 310 303 300 300 299 299 299 301 302 302 303 304 304 305 306 305 304 303 304 306 308 308 307 313 309 310 315 322 328 330 334 336 338 338 337 338 339 340 342 341 343 343 344 344 345 347 347 342 337 337 341 343 344 344 344 343 342 341 341 341 340 339 339 339 340 342 341 340 338 335 335 334 335 336 337 336 336 336 336 336 336 336 337 337 337 337 337 337 338 338 337 337 337 336 336
309 311 305 303 300 300 298 298 299 301 302 302 304 303 305 304 306 307 306 305 306 306 306 310 313 313 305 308 317 322 327 332 335 337 338 338 337 338 339 339 341 341 342 343 343 344 346 345 347 347 342 333 335 337 339 340 342 344 343 342 342 342 342 341 338 338 339 339 340 339 338 339 339 337 336 337 339 335 335 336 338 336 336 336 337 337 337 337 337 337 337 337 337 337 336 336 335
311 312 308 301 298 299 299 300 300 299 300 303 303 302 304 304 306 305 306 304 305 305 305 307 313 310 308 310 313 318 327 334 335 337 338 338 338 337 338 339 341 340 342 342 341 343 344 345 346 346 348 347 348 339 333 337 340 342 342 342 342 342 342 342 341 341 341 341 340 339 339 339 338 338 339 339 338 336 336 336 338 336 336 337 337 337 336 336 336 336 336 336 336 336 335 335 334
312 308 306 303 299 298 298 298 299 300 300 304 301 302 302 303 302 303 306 304 305 304 308 310 313 307 304 305 309 317 329 334 334 336 337 338 337 337 337 338 339 341 341 341 341 343 343 344 344 346 346 346 346 347 347 344 334 338 339 339 339 340 340 339 338 337 337 338 338 337 336 334 332 332 332 334 335 334 332 332 337 338 336 337 336 335 335 335 335 335 335 335 335 334 334 334 333
313 310 307 302 299 299 298 298 298 300 300 304 300 301 304 302 301 303 304 303 305 306 307 308 309 308 307 307 313 323 332 333 335 336 336 336 337 336 336 336 337 339 340 341 341 343 344 344 345 345 345 346 346 348 346 347 335 332 335 336 336 337 337 336 334 331 329 330 330 330 329 333 330 333 326 332 329 333 331 330 333 335 336 336 334 334 335 334 334 334 334 334 333 333 333 332 331
310 314 302 301 298 297 299 299 300 297 302 301 298 301 303 303 301 302 302 303 305 305 306 310 309 314 309 313 317 322 333 333 333 334 334 333 334 334 335 335 335 337 338 340 341 341 343 343 343 344 344 345 346 346 346 346 343 330 332 330 331 333 333 332 329 324 323 322 326 324 327 335 335 334 334 335 327 335 324 326 332 336 335 334 334 333 333 333 333 333 333 332 331 330 327 326 327
313 305 302 300 301 299 302 300 302 303 301 301 299 303 305 301 301 303 304 304 304 305 305 307 308 311 317 319 320 322 329 331 333 331 332 332 333 332 332 333 333 333 336 338 340 341 342 342 343 343 344 344 345 345 345 345 344 338 343 343 342 337 329 327 334 339 334 337 323 333 337 335 334 334 335 333 334 333 331 324 329 334 335 333 334 332 332 332 331 331 331 330 329 327 325 331 327
307 303 303 300 301 302 303 303 303 301 302 303 301 302 304 304 304 303 303 303 303 303 305 306 308 313 316 319 320 324 325 330 331 332 331 331 332 331 331 333 332 333 334 336 338 340 341 342 342 342 343 343 344 344 345 345 343 343 344 341 341 333 337 339 340 338 339 338 337 337 333 334 334 333 334 334 334 323 331 324 327 329 331 330 333 333 331 331 330 329 328 327 326 325 331 332 332
303 306 300 302 306 301 300 301 302 300 301 302 300 300 301 301 303 304 302 303 302 302 303 304 305 307 313 319 321 325 325 330 332 331 331 331 332 331 331 332 332 333 334 336 337 339 340 341 341 342 343 343 343 343 344 343 343 343 342 341 340 338 337 339 340 339 339 339 338 335 333 335 334 333 326 325 329 333 330 321 322 323 325 326 327 330 329 328 326 324 323 322 326 327 331 330 330
304 304 302 303 302 302 300 299 300 299 300 303 302 299 301 300 303 303 303 302 302 303 306 305 305 307 313 319 322 325 325 328 330 331 331 331 332 333 333 333 333 334 336 337 337 338 339 340 341 341 341 342 342 342 342 342 342 342 341 341 340 338 337 336 337 338 338 338 337 334 335 335 334 332 332 332 333 332 332 332 332 332 332 332 325 330 329 327 326 327 326 325 329 329 329 330 330
306 301 300 301 299 302 299 299 297 298 297 302 300 300 302 301 301 302 303 301 302 304 306 307 308 309 316 318 322 324 325 327 328 329 330 330 331 331 332 334 335 335 337 335 336 337 339 340 340 341 341 341 341 341 341 341 341 341 340 340 339 338 338 336 336 336 336 336 336 335 334 334 333 332 333 332 332 331 330 330 330 330 330 330 330 328 327 326 326 326 327 327 326 327 328 329 329
302 299 299 300 299 300 298 298 297 298 300 301 301 302 301 302 301 300 302 303 304 302 302 303 303 308 320 321 322 322 324 325 327 328 329 329 330 331 331 332 332 333 335 336 336 338 339 340 340 340 340 340 340 341 341 341 341 341 340 340 338 337 337 336 335 334 335 335 336 335 333 332 331 331 331 332 331 331 330 330 329 329 329 328 329 328 326 326 325 325 325 325 325 325 326 327 327
303 301 299 298 298 300 296 298 294 297 300 301 301 301 302 300 300 299 300 305 303 300 303 303 301 314 320 320 321 322 324 326 327 328 330 330 331 330 331 331 332 333 334 335 336 337 337 338 340 339 339 339 339 340 340 340 340 341 341 339 338 335 336 336 335 336 335 334 334 333 331 332 331 331 331 331 330 331 330 331 330 329 328 328 328 327 325 324 323 324 325 325 324 325 325 325 326
301 298 298 297 298 297 296 295 296 296 298 298 299 301 299 300 300 298 301 304 305 302 305 310 312 314 318 321 321 324 325 326 327 328 329 330 332 332 332 332 332 333 332 334 336 336 337 338 340 339 338 338 339 339 339 340 339 340 340 338 338 332 336 336 336 336 334 333 333 334 333 331 331 331 331 330 330 329 330 329 328 327 328 326 326 325 325 323 323 323 324 324 325 324 324 324 324
302 300 299 298 298 297 296 297 297 298 298 298 300 300 298 298 297 299 304 302 299 301 305 313 314 314 316 320 321 323 324 324 326 326 326 329 330 329 330 331 331 331 332 333 335 337 337 338 338 339 339 338 338 338 338 338 339 339 339 338 340 335 336 337 336 334 334 333 331 332 333 332 331 330 330 330 329 328 328 328 328 327 326 325 325 324 323 323 323 323 323 323 323 323 323 322 324
300 299 300 299 297 298 297 298 297 297 298 296 300 299 298 297 297 300 300 300 299 303 305 310 314 313 316 320 321 323 324 325 325 326 326 327 327 328 330 331 331 332 333 332 334 336 337 338 338 338 339 338 338 337 338 337 338 338 340 340 339 335 338 336 336 335 334 333 333 332 332 332 331 331 330 329 328 328 327 327 326 326 324 324 324 323 322 323 323 323 323 322 322 323 322 321 322
300 299 299 298 298 298 298 298 296 299 298 298 301 298 298 298 298 301 301 298 300 302 305 308 311 313 317 319 320 321 322 325 326 325 324 324 324 327 329 330 331 332 333 333 334 336 336 337 337 338 338 339 338 337 337 337 337 337 338 340 338 338 338 337 336 335 332 333 333 332 331 331 331 331 331 330 329 327 326 325 325 324 323 323 323 322 321 321 321 321 320 320 321 321 319 320 320
299 301 298 297 298 299 298 298 298 297 298 298 299 298 296 297 299 302 299 297 300 302 304 307 310 311 314 318 319 319 321 322 324 323 324 326 328 329 329 332 333 332 334 335 335 335 335 336 336 337 338 339 338 337 337 337 337 337 337 337 339 339 338 336 334 335 334 333 332 331 331 329 330 330 330 329 328 327 327 325 324 323 323 322 322 321 321 320 319 318 317 316 317 318 318 318 318
298 299 299 296 297 297 297 297 297 298 298 295 296 293 298 299 301 300 297 298 298 300 303 305 308 310 311 313 316 318 319 321 322 323 325 326 328 329 329 332 334 334 334 335 335 334 335 337 337 337 338 337 338 337 337 337 337 337 337 337 339 339 338 337 335 334 333 331 330 330 330 329 328 329 330 329 328 327 327 324 323 322 322 321 319 319 318 319 318 316 316 315 314 316 317 318 317
298 296 299 298 295 295 296 297 297 298 297 296 296 294 296 297 297 298 298 298 299 302 303 303 304 305 308 310 312 315 318 320 321 323 325 327 328 329 330 331 333 334 333 334 334 335 334 335 336 336 336 337 337 337 337 336 338 337 337 336 337 338 338 337 336 335 334 333 331 329 328 327 327 327 328 328 327 327 326 324 322 320 319 318 317 317 317 315 316 316 315 315 314 314 315 316 317
295 295 293 294 295 295 295 296 296 297 298 297 296 293 296 299 298 298 297 298 299 301 302 302 301 302 303 305 307 310 313 318 320 322 324 326 327 328 329 330 331 331 332 333 334 334 334 335 335 335 337 335 336 335 336 336 336 338 338 332 336 338 338 338 338 336 336 335 333 331 330 328 326 327 327 327 326 326 325 324 323 321 317 317 317 316 316 316 316 316 315 316 314 314 314 314 315
294 294 295 292 293 295 294 295 295 296 297 298 296 295 295 298 299 298 297 299 299 300 301 302 302 302 302 302 304 306 308 310 313 317 320 322 325 326 327 328 330 331 331 332 333 333 333 334 334 334 334 336 337 337 338 338 337 336 337 337 337 337 337 338 338 337 336 334 333 333 331 330 328 328 327 326 325 326 326 325 323 319 315 316 316 315 314 316 315 314 313 314 317 315 313 314 312
293 294 293 294 292 293 293 295 296 297 297 296 296 293 296 299 300 299 297 297 298 300 301 302 303 304 303 304 303 303 304 306 308 310 313 318 322 324 325 324 328 329 331 331 333 332 332 334 334 333 333 334 335 335 336 337 336 335 335 337 337 338 338 338 338 338 335 334 333 333 334 332 330 329 328 327 326 326 327 326 324 321 317 316 315 314 314 314 314 313 313 314 314 313 312 311 310
292 291 291 290 290 292 292 294 294 295 296 296 294 293 296 299 300 300 300 298 298 300 302 303 303 304 304 304 303 303 304 305 306 309 311 312 317 321 323 325 326 327 328 329 331 332 333 333 332 332 332 333 333 335 337 336 337 337 336 337 337 337 338 338 339 339 337 335 334 333 334 332 329 328 327 326 327 326 325 325 326 323 317 316 315 314 314 314 314 314 314 312 311 311 311 309 307
295 294 293 293 291 292 292 294 293 295 296 295 295 294 296 299 300 301 301 299 299 301 302 301 301 302 302 303 304 305 306 305 308 309 309 308 309 312 317 322 324 326 326 326 327 330 331 331 331 331 331 331 332 332 334 335 334 332 333 334 333 333 335 335 338 337 338 336 334 334 332 331 329 329 329 328 326 324 322 323 325 321 315 314 313 313 314 313 312 312 311 310 307 306 306 306 304
296 296 295 293 294 293 292 293 294 293 295 296 296 296 296 297 299 301 302 300 299 300 300 302 303 304 304 304 304 306 306 306 313 309 308 308 308 307 309 313 318 322 324 325 325 326 328 329 329 328 330 331 330 330 331 332 331 331 331 332 332 333 333 334 334 335 336 335 334 333 332 331 331 331 330 330 327 322 323 324 324 319 314 312 313 314 313 313 313 312 310 308 305 303 302 302 301
294 293 293 291 295 293 293 294 293 294 294 296 291 293 296 297 300 301 302 299 299 300 301 303 303 304 305 306 306 307 307 308 305 305 305 305 306 308 307 308 310 314 319 322 323 324 326 328 328 328 329 329 329 329 329 329 331 331 330 329 330 331 331 331 332 335 336 336 336 335 334 334 333 333 329 328 327 326 324 323 322 321 316 314 313 313 312 309 310 310 309 306 305 303 302 302 300
294 294 294 293 292 294 293 293 293 294 293 295 292 294 297 299 300 302 301 301 302 303 303 303 304 305 305 304 305 306 306 306 305 304 305 305 307 309 307 307 308 311 314 318 321 323 324 325 327 328 328 328 328 329 328 328 330 331 331 331 332 331 333 332 333 335 336 335 336 336 335 334 333 331 328 327 328 328 324 322 321 321 318 314 311 309 308 308 308 307 306 305 303 303 305 302 302
294 293 292 291 295 292 291 293 293 292 293 295 295 294 297 299 300 299 301 301 300 300 298 299 301 301 303 304 305 304 304 305 305 305 305 304 306 305 306 306 306 307 309 312 316 319 322 323 324 326 327 327 327 328 327 329 329 329 330 331 333 332 330 329 332 332 333 332 332 334 333 332 332 330 329 327 327 328 326 322 320 319 318 315 312 310 308 308 308 307 306 306 307 304 304 302 303
293 296 295 293 290 292 294 293 292 291 291 290 292 294 295 298 296 298 295 292 292 295 295 296 297 300 301 303 302 302 301 302 304 305 305 304 303 304 305 305 306 305 307 308 311 315 317 320 322 324 325 325 326 325 327 328 328 329 328 329 330 327 326 327 327 327 330 330 331 332 332 333 332 331 330 330 328 326 325 324 320 318 317 314 313 311 309 308 308 309 308 307 307 306 304 304 301
293 294 296 295 295 293 290 292 293 293 294 291 290 289 291 295 295 295 297 295 296 296 296 300 300 299 299 298 300 301 302 302 302 302 304 304 303 303 304 304 303 305 305 307 309 311 314 317 319 322 323 324 324 324 325 326 326 325 324 323 320 321 320 322 321 323 325 326 327 331 333 334 334 333 331 329 327 324 324 324 322 319 318 317 314 311 311 310 309 309 309 308 307 307 306 304 300
291 293 294 293 294 295 294 292 294 290 288 291 289 288 288 296 295 296 294 294 296 298 298 299 298 299 298 300 301 301 301 302 301 300 300 299 301 301 302 303 305 304 305 307 308 308 311 314 318 319 321 322 323 323 324 323 323 324 324 323 322 321 320 322 324 325 326 327 329 328 329 331 332 332 331 330 328 326 326 325 324 323 321 319 316 313 312 311 310 310 309 307 307 307 307 304 302
291 292 292 294 296 295 295 294 295 292 292 292 290 293 288 289 294 295 291 292 296 298 299 299 300 299 299 301 302 303 304 303 303 303 303 301 300 300 301 303 303 304 305 304 306 308 310 312 316 317 319 321 322 322 323 323 322 323 323 323 322 322 322 322 324 324 326 327 327 326 327 327 328 329 330 330 329 328 327 327 325 324 321 319 316 314 313 311 309 310 309 307 307 307 306 305 304
293 288 294 296 297 297 295 296 292 291 291 289 291 293 288 288 294 292 291 293 297 298 298 298 300 301 301 302 302 302 302 303 302 303 303 301 302 303 302 305 306 305 306 307 307 308 311 313 315 317 319 320 321 321 321 322 322 322 322 322 321 322 323 323 324 325 324 325 325 325 325 325 325 325 326 327 326 326 324 325 326 324 322 320 316 314 314 314 312 310 307 306 305 306 306 306 306
290 291 293 292 293 293 295 293 293 290 288 286 288 288 286 288 296 293 291 291 294 298 297 298 300 300 301 301 302 302 301 303 303 301 302 303 304 304 304 304 306 307 307 307 308 309 311 313 314 316 317 319 320 320 320 321 322 321 322 322 321 321 322 322 323 322 322 323 322 323 323 323 324 323 323 324 325 325 324 323 324 323 322 320 315 315 314 314 313 312 310 307 306 306 306 305 305
293 294 296 295 295 293 292 291 290 289 284 287 285 285 286 285 295 294 293 295 296 296 297 298 300 302 301 301 300 301 300 301 303 303 303 304 303 303 304 306 306 308 308 309 310 311 311 313 314 315 317 318 318 318 319 320 321 321 321 321 321 321 321 321 319 318 319 318 318 320 320 321 321 321 322 321 321 323 323 322 321 322 322 321 317 316 316 316 314 312 309 307 305 305 305 305 304
295 296 294 293 291 293 291 289 290 285 284 284 284 284 286 283 289 293 294 292 291 296 298 298 299 300 302 302 301 300 299 300 302 304 305 304 305 305 306 307 307 308 309 310 310 311 312 313 314 314 312 313 315 316 317 318 319 320 321 321 320 321 321 320 319 318 317 316 316 317 319 319 318 318 318 318 319 319 319 318 318 319 318 319 318 316 316 315 315 313 311 308 306 305 306 304 304
294 294 293 288 285 286 283 286 282 283 283 284 284 284 283 284 292 293 293 294 294 294 297 298 299 299 302 302 302 301 301 300 302 303 305 306 307 307 307 306 308 309 309 309 310 311 312 313 313 312 311 311 312 314 315 317 317 317 318 319 320 320 320 320 319 318 319 318 318 318 317 316 315 315 314 314 316 318 318 318 318 318 318 318 317 316 316 315 313 312 310 308 307 306 305 305 304
293 292 290 287 282 281 280 281 280 281 283 283 284 286 282 290 292 296 295 296 294 294 296 298 297 298 299 300 300 300 301 299 300 302 304 305 306 306 306 306 307 308 308 309 309 311 311 313 314 315 312 310 310 311 313 314 314 315 316 316 317 317 317 318 318 317 318 318 319 318 317 318 318 316 316 315 316 317 317 317 318 319 319 319 318 317 316 315 315 313 311 310 308 306 305 305 304
292 296 295 289 288 283 278 280 280 282 283 282 284 282 286 285 291 293 294 294 293 292 292 294 294 295 296 297 297 298 299 299 300 302 303 304 304 304 306 306 307 307 308 309 309 309 311 312 313 314 312 310 310 311 312 313 314 314 314 315 315 316 316 316 317 318 318 318 318 318 319 320 319 320 319 319 319 317 316 316 316 316 317 317 318 317 316 316 315 314 313 311 310 309 306 305 304
292 291 293 290 288 292 284 282 282 280 282 281 282 284 290 291 294 294 294 293 293 293 293 293 295 296 296 298 302 301 299 299 300 301 302 302 302 303 305 305 306 306 306 307 308 309 311 312 311 312 313 311 311 311 312 313 314 315 315 314 314 314 314 315 316 316 316 317 318 317 318 319 318 318 318 317 317 317 316 315 314 314 314 315 316 316 316 315 314 313 312 312 311 310 308 306 305
291 290 288 290 292 288 278 278 278 278 281 282 286 286 291 293 294 297 294 292 295 293 293 293 296 297 297 301 304 300 299 301 301 302 303 303 302 302 305 306 306 305 306 308 308 309 310 310 310 310 309 308 309 310 312 312 312 312 312 313 313 313 313 312 314 315 315 316 315 315 316 316 317 316 316 315 315 314 314 315 315 314 314 314 314 314 314 314 314 312 311 311 309 310 308 307 306
292 286 291 290 293 294 289 283 281 282 280 283 282 284 287 287 286 296 294 293 295 294 295 295 296 296 298 302 302 300 300 300 300 301 302 303 304 305 305 305 306 306 306 306 305 305 306 308 308 310 309 309 309 308 309 309 309 310 311 311 311 312 312 312 313 313 314 313 313 313 313 313 313 314 313 313 313 312 312 309 311 312 313 313 313 313 313 313 313 312 312 311 311 309 308 307 307
293 292 297 291 285 284 286 286 278 278 277 281 283 281 282 287 290 294 292 293 295 294 295 294 296 297 300 301 299 300 301 303 304 304 304 305 306 306 306 305 304 304 304 305 305 305 306 306 306 307 308 308 307 307 307 308 307 309 309 309 310 309 310 310 310 311 311 310 310 311 311 311 312 312 311 310 310 310 310 310 310 310 311 311 311 311 311 311 311 310 310 309 310 310 308 307 307
293 292 291 291 292 290 285 285 286 286 282 277 282 280 284 289 291 294 294 294 296 294 293 294 297 299 300 299 299 301 303 304 304 305 305 305 305 304 304 305 305 304 304 304 304 305 305 305 305 305 305 305 306 306 307 307 308 307 307 307 307 307 307 307 308 308 309 309 309 310 310 310 310 310 310 309 309 309 309 308 309 309 309 309 309 309 310 309 309 308 308 308 308 308 307 306 306
287 289 288 291 288 290 290 287 285 284 282 280 281 280 286 292 293 293 295 293 292 292 295 298 298 298 297 297 301 302 303 304 304 305 304 304 304 303 302 301 302 300 300 301 302 303 303 303 302 302 303 303 303 304 304 305 305 305 305 305 306 306 306 306 306 307 307 307 308 308 308 309 309 308 309 308 308 308 308 308 308 307 307 308 308 308 309 308 308 308 308 308 309 309 307 306 305
291 290 288 291 286 285 283 282 283 280 284 278 278 280 288 296 289 293 294 293 292 293 292 296 298 296 296 298 299 302 303 303 303 303 303 303 303 302 301 301 300 302 302 301 301 302 302 302 301 301 302 302 302 303 302 303 303 304 303 304 304 304 304 304 304 305 305 305 306 306 307 306 305 306 307 306 307 307 307 307 307 307 307 307 307 307 308 308 307 307 306 307 307 307 307 306 303
Wind_Speed
3 1 1 2 1 1 3 1 5 2 3 1 3 4 5 2 1 5 4 5 6 4 2 2 8 10 2 1 3 4 3 3 6 3 5 4 4 11 8 10 12 11 10 9 9 9 9 9 10 10 12 11 11 11 10 9 9 10 10 9 8 10 11 11 13 14 16 16 15 14 15 16 15 16 15 15 15 17 16 15 15 15 17 15 15 17 16 16 17 17 18 18 18 17 17 17 17
2 2 2 0 1 1 2 2 0 2 1 2 2 1 5 4 3 8 9 8 4 6 3 5 8 4 4 2 2 2 3 6 5 4 3 6 10 9 8 12 13 12 10 9 9 9 10 11 9 10 12 11 11 11 10 9 8 9 10 10 9 7 9 13 14 13 15 16 16 15 14 15 16 15 15 15 15 15 17 17 16 17 16 16 17 17 17 17 16 17 18 18 17 17 16 16 17
2 3 3 0 1 2 3 2 4 1 3 3 5 2 3 5 6 6 6 3 5 7 5 5 5 5 2 2 4 4 4 3 4 0 6 9 12 8 10 12 12 12 12 8 8 9 9 10 8 10 12 11 11 11 10 9 9 9 8 8 8 8 13 12 13 13 11 15 14 13 12 14 15 14 15 14 14 15 16 16 16 15 15 15 16 16 17 17 16 17 16 17 17 17 17 17 17
1 4 1 0 2 2 1 2 2 3 4 2 3 5 7 6 7 7 6 5 7 7 6 7 8 2 4 4 2 1 3 3 2 6 7 10 5 12 12 13 12 11 9 7 8 8 9 10 8 10 11 11 11 11 9 9 9 8 8 9 8 7 10 11 13 13 11 13 14 13 12 14 15 13 13 14 14 14 15 15 15 14 14 14 14 15 15 16 16 16 16 16 17 16 16 17 17
1 3 2 4 4 3 0 2 1 2 3 3 2 7 8 5 8 7 6 7 6 2 5 6 2 2 3 3 1 3 4 5 5 3 5 7 8 12 13 13 11 10 10 9 9 9 10 10 8 9 11 11 11 10 9 9 8 8 8 8 7 6 10 11 13 13 12 14 14 13 13 13 13 14 14 14 12 12 12 13 15 15 14 15 15 15 16 16 16 16 16 16 16 16 16 16 16
0 2 2 3 1 3 2 4 4 4 4 1 1 5 9 6 9 8 10 7 3 1 2 7 2 6 4 1 2 1 3 3 6 5 9 7 11 13 14 12 11 10 10 9 9 8 10 9 8 9 11 11 12 10 9 9 8 9 8 8 7 8 11 13 13 12 13 14 13 12 12 13 12 13 13 12 12 11 12 13 14 14 14 15 16 15 16 16 16 16 15 15 16 16 16 16 16
0 2 1 4 4 2 2 2 1 2 4 2 3 3 9 8 9 12 10 7 2 1 1 3 2 4 3 3 3 1 3 1 6 6 7 9 12 13 14 12 12 12 12 10 9 9 12 8 9 10 9 10 12 11 9 9 9 8 8 8 7 6 9 13 12 12 13 13 12 12 12 12 12 12 13 12 11 12 13 14 15 14 15 14 14 14 14 15 16 16 15 15 15 16 15 15 16
3 2 2 3 3 2 2 0 1 2 3 1 3 1 6 9 10 10 12 8 8 5 5 1 3 4 5 2 1 5 1 2 3 2 7 11 11 13 13 12 12 12 12 10 9 9 11 7 8 9 9 11 11 11 10 9 9 8 8 7 7 7 7 13 11 11 12 12 12 12 12 11 12 13 13 11 11 11 12 14 13 12 13 13 13 13 14 14 14 14 14 15 15 15 15 16 16
2 1 1 3 3 1 2 2 1 2 1 1 1 3 4 3 7 11 11 1 4 0 7 5 3 5 5 4 2 4 3 2 2 4 10 11 12 13 9 12 12 10 12 10 9 9 11 7 7 8 8 10 10 11 10 10 9 9 8 8 7 7 7 9 11 10 10 12 12 12 11 10 11 12 13 11 11 11 11 12 13 13 13 13 13 13 13 13 14 14 14 14 14 14 14 15 15
1 2 3 1 1 3 0 2 4 2 0 2 2 1 3 5 5 6 11 5 4 6 5 3 2 2 7 4 4 4 4 2 5 9 10 11 11 12 10 11 11 11 11 10 9 9 8 7 6 7 7 8 9 10 11 10 10 9 9 8 8 7 7 7 9 11 11 11 13 12 11 10 9 11 12 11 11 11 11 11 11 12 13 14 13 13 13 13 12 12 13 13 13 14 13 14 14
2 2 2 4 3 2 5 4 2 3 2 0 3 2 1 5 5 6 5 4 2 3 6 2 5 5 6 3 2 4 5 4 8 11 11 11 11 11 9 9 9 11 10 10 9 9 9 9 6 6 6 8 8 9 9 10 10 9 9 8 8 7 6 7 10 11 11 11 11 12 11 10 9 10 12 10 10 10 10 11 11 12 12 13 13 12 12 12 12 12 13 13 13 13 14 14 14
2 2 2 3 3 2 2 2 3 3 1 1 4 4 3 7 5 6 6 6 5 5 6 9 2 6 4 4 4 5 5 5 8 10 11 11 10 10 10 8 9 11 10 10 8 8 8 9 8 6 6 8 7 9 8 8 8 9 8 8 8 7 6 7 8 10 10 12 11 10 11 10 8 8 10 10 12 10 10 9 10 11 11 12 12 12 12 12 12 13 13 13 13 14 14 14 14
2 1 2 3 2 1 2 2 3 1 2 5 5 4 5 6 9 6 7 2 6 6 4 8 2 3 4 3 3 5 7 8 9 9 11 10 9 9 8 8 9 9 10 9 10 9 9 8 9 10 9 8 8 8 8 8 8 7 8 8 7 6 6 6 8 8 9 10 11 11 9 7 6 7 7 9 10 10 9 7 9 10 11 11 11 12 12 12 12 12 12 13 13 14 14 14 14
3 1 2 2 1 1 2 2 1 4 5 5 3 5 7 5 4 1 5 5 6 4 4 2 3 2 3 3 5 6 7 10 10 10 9 10 9 9 10 8 8 9 9 10 9 9 9 8 8 9 10 10 10 9 9 8 8 8 7 7 7 6 5 5 5 6 8 8 10 9 7 7 6 6 7 9 11 11 8 7 8 9 10 12 12 12 12 12 12 12 12 13 13 13 13 13 13
2 1 3 3 2 2 0 3 4 5 4 6 5 8 6 1 1 2 6 6 5 4 2 1 3 3 3 7 5 7 10 12 11 10 9 9 9 8 9 8 8 8 9 9 9 9 10 8 8 8 9 9 10 9 9 9 9 9 8 7 7 7 6 6 7 8 8 9 9 8 8 8 8 10 10 9 9 9 9 7 6 7 11 12 11 12 11 11 11 11 11 12 12 12 13 12 12
2 3 1 3 3 3 3 2 1 3 3 5 4 0 7 3 1 3 1 4 3 2 2 4 1 2 3 0 7 7 13 12 11 10 10 10 9 8 8 8 8 8 8 9 9 9 8 9 8 7 8 9 9 8 8 10 9 10 8 8 7 7 7 8 8 9 9 10 9 10 9 8 7 7 8 9 8 8 7 7 4 7 11 11 11 11 11 11 10 10 11 11 12 12 12 12 11
1 2 4 2 4 4 4 3 7 4 5 4 4 7 9 6 2 2 2 2 3 4 3 1 1 1 3 5 4 4 10 11 11 11 10 10 9 8 7 6 7 7 6 9 8 9 9 9 9 8 8 8 8 8 7 8 9 10 8 7 8 7 8 8 9 9 9 9 9 9 8 7 6 6 6 6 7 6 7 7 6 6 8 9 9 9 10 10 10 10 10 11 11 12 11 11 9
3 4 3 4 2 5 6 6 7 2 5 8 8 9 8 7 4 3 2 3 2 3 4 1 2 4 2 2 2 2 7 11 13 13 12 11 10 9 8 7 8 9 8 7 9 9 9 9 9 9 8 8 8 7 6 7 7 8 9 8 8 7 7 8 7 7 8 7 8 7 5 5 5 5 5 6 6 7 7 7 8 8 8 7 7 9 9 9 9 8 9 10 11 10 8 7 7
2 2 2 3 3 1 2 3 5 3 4 10 8 6 5 5 9 5 5 5 4 5 5 3 4 5 3 2 2 8 6 12 13 13 16 15 13 14 11 9 9 10 10 8 8 10 9 8 9 9 9 9 9 8 6 6 9 8 9 8 7 7 7 7 6 6 6 7 7 5 5 4 5 5 4 4 4 8 8 8 9 7 7 6 6 7 8 8 8 8 7 8 8 4 4 5 6
1 3 5 2 2 2 1 1 6 1 3 10 9 6 3 3 1 4 3 4 3 7 6 5 7 9 9 6 7 11 7 12 14 15 16 16 14 14 13 13 11 11 11 10 9 9 9 9 10 9 8 9 9 8 7 7 8 7 7 7 6 6 7 6 6 6 5 6 6 5 4 5 5 4 8 9 7 6 6 9 10 10 9 8 9 7 8 8 8 5 5 5 4 3 3 4 5
2 3 4 3 4 4 2 2 2 3 2 7 7 6 5 4 2 5 4 4 6 7 7 7 10 11 10 9 10 13 11 13 14 15 15 15 15 13 12 13 11 11 10 9 8 9 11 10 9 9 9 8 9 8 8 8 8 7 7 7 7 7 6 7 5 6 5 6 6 5 5 6 5 5 6 6 6 5 6 6 6 6 6 6 3 5 4 4 4 3 4 2 2 2 3 3 4
5 2 5 2 3 1 3 2 2 2 2 6 8 11 7 6 3 5 6 7 3 3 3 7 5 1 11 12 11 14 15 16 16 16 17 17 17 16 13 11 11 10 9 9 10 9 10 10 10 9 10 10 10 8 9 7 7 8 8 8 7 7 7 7 6 5 6 6 6 5 6 6 6 5 6 6 6 6 6 6 6 5 6 6 6 4 3 4 2 3 2 2 2 2 2 2 2
6 1 1 2 2 1 2 3 2 3 5 8 9 5 7 8 4 0 5 11 2 3 3 5 4 2 3 8 12 13 16 16 18 19 18 17 17 16 14 12 12 11 10 10 10 10 10 11 10 10 10 10 11 10 9 8 9 8 8 8 8 7 7 7 7 7 6 7 6 6 7 7 6 6 6 6 6 6 6 6 6 5 6 6 5 4 3 3 2 2 2 2 2 2 2 1 2
2 5 4 3 3 2 1 2 2 2 4 6 3 5 6 8 7 2 5 9 3 3 4 4 2 1 7 11 12 15 17 18 19 18 18 17 16 16 14 14 12 11 10 12 11 10 9 11 11 11 10 10 10 10 9 9 9 8 8 7 8 6 7 7 7 7 7 6 7 6 6 6 6 6 7 7 6 5 6 5 5 5 5 4 4 3 3 3 3 2 2 2 2 2 2 2 2
4 4 4 3 1 2 1 1 3 1 3 3 3 8 2 3 1 3 6 7 4 0 3 3 4 3 4 7 11 12 13 13 13 14 13 12 12 13 13 11 12 11 12 13 11 11 12 11 12 12 11 11 10 10 10 10 10 10 9 8 8 7 8 7 7 7 7 6 6 6 7 6 6 6 7 7 6 6 5 5 5 5 5 4 4 4 4 4 4 3 3 3 3 3 3 3 3
2 5 8 5 4 3 3 4 2 3 3 3 7 4 3 3 2 5 6 4 3 3 1 2 3 4 6 8 10 11 12 14 13 13 15 12 10 13 14 13 12 14 13 13 13 12 12 12 13 13 12 10 10 10 10 10 10 10 10 9 8 8 10 8 8 7 7 7 6 7 6 6 6 6 7 6 6 6 5 6 6 5 5 5 5 4 4 4 4 4 3 3 4 3 4 3 3
6 9 7 7 4 3 1 0 2 1 3 1 4 5 3 1 2 4 5 3 4 1 2 1 4 6 7 7 7 8 10 12 14 11 11 12 12 13 14 14 14 13 12 13 13 12 11 12 12 12 13 10 10 10 10 11 10 11 10 10 9 7 9 9 8 8 8 7 7 8 7 6 6 6 7 6 6 6 6 6 6 5 5 5 5 5 5 4 4 4 4 4 4 4 3 3 3
9 13 12 9 6 5 3 5 2 2 4 3 2 4 2 2 2 4 5 3 2 4 3 3 3 5 5 7 7 6 7 7 8 10 14 15 14 13 14 14 15 13 13 13 11 12 12 14 14 13 13 11 11 11 9 10 10 11 10 9 10 8 7 8 10 9 7 7 8 8 8 7 6 6 6 6 6 6 6 6 6 6 6 6 6 5 5 4 4 3 3 2 2 3 3 3 3
9 7 7 4 3 4 5 2 2 4 2 1 2 5 4 4 8 3 4 1 1 2 3 3 5 5 4 4 6 6 7 7 9 11 14 13 12 12 14 13 12 13 10 12 12 12 14 13 13 14 14 14 14 13 10 10 9 9 10 10 9 10 10 7 7 8 7 6 7 8 8 8 6 6 6 7 7 7 6 6 6 7 6 6 6 6 6 5 4 4 3 3 3 3 4 4 4
4 3 6 6 5 3 3 1 1 2 2 1 1 5 5 11 10 5 1 1 1 2 4 5 4 4 4 5 6 6 6 7 10 12 11 11 11 12 13 12 12 11 9 9 11 13 11 10 10 10 13 15 14 13 13 11 10 9 8 10 9 9 10 10 8 7 7 6 7 8 9 8 6 6 6 7 7 7 6 6 7 7 6 6 5 6 6 6 6 5 5 5 5 5 5 5 6
6 2 3 4 7 5 4 2 5 3 1 1 2 5 2 3 1 3 2 1 2 4 4 4 4 4 5 5 5 7 8 10 11 11 11 11 10 10 11 11 12 12 8 9 13 13 12 11 9 11 12 15 12 14 13 13 11 10 7 9 10 10 7 8 10 9 10 8 6 7 8 8 7 7 7 7 7 7 7 7 7 6 5 6 6 5 5 4 5 7 7 7 6 5 5 5 6
1 7 6 1 6 3 2 4 3 4 2 2 3 5 8 2 5 4 2 1 3 5 4 3 3 5 5 5 7 7 8 8 11 11 12 12 11 10 10 12 11 12 13 11 10 10 13 13 12 13 12 14 14 14 13 13 13 11 10 9 10 10 8 9 8 10 12 11 10 8 9 9 9 10 9 8 7 7 7 7 7 7 7 6 6 6 6 6 6 5 5 6 7 7 6 7 6
0 2 2 5 1 3 4 1 1 3 1 1 4 4 1 1 2 3 1 3 3 3 5 5 5 5 6 6 6 6 6 8 9 12 13 12 11 11 11 12 12 13 12 12 11 11 12 13 13 14 14 14 15 14 13 14 12 12 12 12 12 11 10 11 11 8 7 10 10 10 10 10 11 10 10 10 8 8 8 7 7 7 7 8 7 7 7 7 7 6 6 6 6 6 7 7 5
6 2 2 1 7 6 5 4 0 3 1 7 1 4 5 3 2 2 3 1 1 3 4 6 6 4 5 4 5 6 7 7 9 10 13 13 11 13 12 10 11 11 12 12 12 12 12 12 11 13 13 13 13 13 14 13 12 12 11 12 11 13 13 12 11 11 11 10 9 11 10 12 11 11 10 10 10 10 10 9 8 9 9 9 7 7 8 6 5 6 7 6 6 5 5 6 5
8 6 3 3 1 3 0 5 2 1 0 5 1 6 11 8 4 5 4 2 4 6 6 5 5 5 4 5 5 7 7 8 12 9 8 10 12 11 11 11 11 11 10 12 12 12 10 10 10 11 13 13 13 12 12 13 12 12 11 10 11 12 11 12 11 10 10 10 11 11 12 8 8 8 9 9 10 8 8 7 8 9 8 8 8 8 8 8 8 8 9 7 5 4 3 3 3
11 11 6 5 7 7 5 2 2 1 6 7 6 8 10 11 10 9 4 2 4 7 6 6 6 6 6 6 6 6 7 10 8 3 3 5 7 8 8 9 10 10 11 11 13 12 12 11 11 11 13 14 12 12 11 11 11 11 11 10 11 11 10 9 10 10 8 9 11 13 11 8 9 10 11 11 10 7 6 7 9 7 7 8 8 9 10 10 11 10 9 8 7 3 1 1 2
7 4 4 5 5 2 3 2 3 1 1 9 8 9 9 10 10 10 6 4 5 9 10 8 8 7 7 6 7 8 8 11 3 2 3 5 7 6 7 7 8 10 11 12 12 13 14 13 12 14 12 13 12 12 11 11 10 13 12 13 11 9 8 8 8 8 8 8 8 10 10 9 11 12 12 12 11 10 9 10 8 7 7 8 9 10 9 9 9 8 6 4 6 5 3 3 4
11 8 7 3 3 4 2 2 2 1 3 2 1 5 12 13 12 11 9 3 10 11 10 9 9 8 6 7 8 8 8 1 1 4 5 4 4 5 5 5 7 10 12 12 14 14 13 13 13 12 10 12 13 13 11 12 12 11 12 12 12 12 11 9 8 7 9 8 9 9 9 9 12 13 9 10 11 11 11 9 8 9 8 8 9 7 6 5 6 6 5 4 4 6 5 7 6
3 6 5 4 4 4 3 1 1 2 1 3 2 5 10 11 10 11 10 10 8 8 8 8 6 7 6 6 7 7 5 6 3 6 5 5 4 4 4 5 6 9 8 10 11 11 11 12 12 11 10 11 12 13 13 12 11 11 11 10 10 10 9 10 11 8 7 9 11 12 11 12 12 10 8 10 10 13 10 8 8 9 10 7 5 5 6 7 8 9 10 8 6 4 4 5 10
4 4 6 6 5 7 5 3 3 2 1 2 1 6 9 9 8 10 10 7 6 5 5 8 6 8 9 9 5 4 6 5 6 6 6 4 3 4 4 5 6 5 6 7 8 10 9 10 11 11 11 11 11 12 12 14 12 11 11 11 10 8 4 1 4 4 5 6 8 8 8 8 9 9 9 9 9 13 10 9 8 7 8 7 7 9 9 10 10 9 9 11 10 8 8 9 11
2 1 3 3 4 3 3 5 3 1 1 0 2 5 9 5 7 6 3 1 4 6 5 7 8 9 9 8 8 7 11 9 9 8 7 7 6 7 6 4 3 5 7 7 7 8 7 10 10 10 10 11 10 12 12 13 12 10 10 8 5 1 2 5 4 5 8 8 8 9 9 7 8 10 9 9 10 10 9 9 9 8 8 9 9 9 9 10 12 12 13 12 13 12 9 5 7
3 4 3 2 5 8 4 8 8 4 4 4 3 4 4 0 5 6 1 2 3 3 3 5 4 4 4 6 5 5 7 7 8 8 7 4 5 6 5 4 4 5 6 6 6 7 8 7 9 9 9 10 10 12 12 12 12 11 10 9 11 11 12 11 11 13 12 14 15 12 13 12 12 10 9 9 10 9 10 10 10 10 10 10 10 9 8 8 11 12 13 13 12 11 7 8 7
4 4 3 2 6 8 9 8 4 4 3 2 2 6 3 1 3 2 1 4 8 3 5 5 3 3 2 3 3 3 4 4 5 7 7 6 7 6 6 6 5 5 4 2 4 6 7 7 8 9 9 8 9 10 12 11 13 13 13 12 11 11 11 10 9 9 9 10 10 12 11 8 10 12 9 9 9 10 11 11 11 11 11 11 10 9 10 11 11 12 9 10 10 9 7 8 9
6 3 3 6 9 10 8 8 1 2 3 1 0 2 4 5 4 2 2 4 7 6 3 2 1 1 1 2 2 3 3 3 4 5 5 4 4 5 4 1 1 1 1 1 3 5 7 9 8 9 8 8 7 9 12 12 11 12 13 13 12 12 12 11 11 12 11 9 9 8 7 7 7 9 10 9 9 10 11 10 10 10 10 11 10 11 11 8 6 7 8 9 7 8 10 10 9
0 1 2 5 6 6 6 3 3 2 1 3 3 3 3 5 4 1 3 4 4 6 3 0 1 1 2 2 3 3 3 3 3 3 2 1 2 2 2 2 1 1 1 2 4 4 5 6 7 7 8 8 8 11 11 13 11 10 11 10 12 11 11 11 9 7 8 8 12 10 8 7 7 7 8 8 7 8 9 10 9 10 9 8 8 8 8 8 10 9 9 8 11 10 11 11 9
1 4 6 6 6 6 2 3 4 2 1 5 4 3 3 8 2 2 2 3 7 5 2 2 1 2 2 2 3 3 3 2 1 2 2 1 1 1 1 1 1 1 0 1 1 2 3 4 6 8 8 7 7 9 11 12 12 10 10 11 13 12 10 9 8 9 10 9 11 10 8 8 7 7 7 7 8 7 6 7 7 9 10 9 9 10 10 10 10 10 13 13 13 14 11 11 13
13 7 10 6 6 3 2 4 1 1 4 2 3 2 2 4 2 4 4 4 2 2 3 1 0 1 1 0 2 3 4 3 3 2 1 1 1 1 1 3 3 2 2 2 2 2 2 3 5 6 6 5 7 9 10 11 11 10 11 12 13 13 11 11 8 8 7 6 8 9 9 8 7 7 7 7 8 8 7 6 5 5 6 9 10 10 10 11 10 10 9 11 10 11 8 9 12
6 4 6 9 4 1 2 2 1 2 3 3 2 1 3 6 2 2 3 1 3 1 5 6 4 4 2 2 2 3 3 3 3 1 2 2 3 3 2 4 3 3 3 3 2 2 3 3 4 6 5 5 5 6 7 9 9 11 11 10 11 11 11 9 11 11 8 8 8 8 8 7 6 6 6 6 6 7 6 6 7 7 7 6 7 7 8 8 8 9 9 9 9 11 11 10 10
2 6 8 6 3 1 2 2 4 6 3 2 2 2 2 11 8 3 3 5 5 6 3 1 1 1 1 1 3 3 3 3 2 2 1 2 3 3 4 4 4 3 3 3 3 2 2 3 5 6 5 5 5 5 7 7 8 9 9 10 10 9 10 10 10 10 10 9 8 9 9 7 7 6 6 6 8 9 8 8 8 7 7 7 6 7 9 9 9 8 8 9 10 11 12 12 11
5 10 8 5 4 3 4 2 2 3 1 1 1 1 5 3 6 13 14 5 3 4 5 4 3 4 4 5 5 5 3 2 2 2 2 1 1 2 2 3 3 4 4 3 3 3 3 3 4 5 5 5 4 4 5 6 7 7 7 8 8 7 8 9 9 9 9 8 9 9 9 9 9 9 9 9 10 10 9 9 8 8 8 7 6 7 7 8 8 8 9 9 10 9 8 11 11
6 4 6 3 4 4 4 3 5 3 1 2 2 1 3 3 1 2 2 2 0 1 2 3 5 5 6 6 6 4 2 2 2 1 1 1 1 1 1 1 2 2 2 3 2 3 3 3 3 5 5 5 6 6 6 7 6 7 7 7 7 6 7 7 7 8 8 9 8 9 9 9 10 10 9 9 9 10 9 9 9 9 9 9 8 8 7 8 9 10 10 10 8 8 9 10 12
2 1 3 1 3 2 1 1 1 2 2 1 1 5 3 3 2 6 5 4 5 3 3 3 5 3 2 4 1 1 1 2 1 1 1 1 1 1 1 1 1 1 1 1 1 2 2 3 3 3 3 4 5 5 5 6 5 5 6 7 7 7 6 6 7 7 8 8 9 9 10 10 9 7 6 5 5 7 9 9 9 10 10 10 10 10 9 8 8 9 8 8 10 6 9 12 9
5 4 4 1 5 9 6 2 1 1 1 3 2 5 4 6 8 6 4 2 3 3 3 3 3 0 1 3 0 2 1 1 1 0 0 2 2 1 1 2 3 3 3 3 3 2 2 3 3 3 3 3 4 4 4 3 3 3 4 5 5 6 7 8 8 8 9 8 8 8 9 10 8 6 6 5 6 6 6 8 10 10 10 10 11 11 11 10 8 8 8 9 10 8 9 11 9
7 3 6 4 2 1 1 2 1 0 2 1 3 5 4 1 3 3 2 4 4 3 4 2 1 1 3 2 1 2 2 2 1 1 1 1 1 2 2 1 1 2 3 3 3 2 1 1 2 2 2 2 2 2 2 2 3 3 3 4 5 5 5 6 6 6 6 7 7 7 8 9 9 6 5 4 5 6 6 7 7 7 7 8 9 10 10 11 11 11 12 10 8 7 9 9 9
2 1 5 4 3 4 1 1 1 3 2 2 3 2 5 6 7 1 2 6 7 6 3 2 4 4 5 3 2 3 2 2 3 3 3 3 3 2 2 2 2 1 1 2 2 2 2 2 1 1 2 2 1 0 0 1 2 2 2 3 4 4 4 4 4 5 5 6 7 6 7 8 8 6 6 5 5 6 6 6 6 7 7 8 8 9 10 10 11 11 11 10 10 10 10 10 9
4 2 4 2 3 0 5 3 1 0 2 1 2 2 4 6 7 6 5 4 1 3 3 5 4 5 4 2 2 4 4 4 4 4 3 3 3 2 2 2 2 2 3 2 2 2 4 3 2 2 2 3 3 2 2 2 0 1 2 2 3 3 4 4 4 4 4 5 5 6 7 8 9 7 6 5 6 6 6 7 6 7 7 7 8 8 10 11 10 11 10 10 10 11 12 12 9
4 5 5 2 1 2 2 2 1 2 2 3 2 2 2 3 5 6 4 3 2 1 4 5 3 2 1 1 4 5 5 5 4 4 3 2 3 2 2 1 2 2 2 2 1 3 3 3 3 2 2 2 0 0 1 1 1 1 2 3 3 3 4 3 4 4 5 5 5 6 6 7 7 8 8 9 9 7 6 7 7 7 8 7 8 9 11 10 11 12 11 11 11 13 13 13 10
4 8 11 10 7 5 5 4 3 0 2 3 3 5 0 3 2 5 5 1 1 2 2 2 1 3 2 3 3 4 6 4 3 2 1 1 2 3 3 2 2 2 2 2 1 1 2 3 3 3 3 2 2 1 0 1 1 1 1 2 2 2 3 3 4 4 5 5 5 5 6 7 7 8 7 8 9 8 8 9 10 11 11 11 12 12 11 10 11 11 11 9 11 13 14 10 8
Wind_Direction
327 340 359 21 352 297 266 33 226 110 234 106 132 206 113 65 35 157 158 135 166 128 114 139 133 148 196 340 3 24 0 302 2 294 63 85 166 146 129 140 136 140 140 143 144 151 156 135 131 117 110 108 104 97 94 89 86 91 94 92 87 92 94 95 91 93 97 96 97 100 99 100 102 96 94 92 89 94 97 92 87 87 87 90 88 87 88 84 85 85 85 85 85 85 83 81 78
295 323 55 331 38 282 178 314 7 169 204 140 138 257 115 141 175 187 161 174 56 136 137 139 152 114 44 358 39 164 116 24 4 59 85 118 146 141 140 150 145 143 142 144 149 151 143 133 133 120 115 111 105 100 100 100 94 93 97 94 91 82 87 92 100 101 103 101 100 101 98 98 96 97 93 90 89 85 85 84 80 83 85 82 79 83 92 90 86 86 86 86 86 86 85 82 82
330 325 126 15 154 288 115 254 229 188 199 183 137 185 107 172 193 167 146 66 97 106 126 123 124 162 171 153 180 270 91 49 80 66 96 146 141 156 154 149 148 146 146 148 150 146 143 131 132 122 118 114 108 104 103 101 100 98 92 89 90 87 85 96 99 104 102 106 104 102 104 100 94 92 93 94 93 93 95 95 92 85 82 82 84 87 86 88 90 90 90 89 88 87 86 85 85
260 32 310 327 169 241 191 174 278 200 211 57 140 143 181 183 173 135 79 96 109 128 138 143 170 35 283 230 34 147 98 113 103 124 129 163 147 147 155 149 146 146 144 150 149 146 139 130 131 124 119 117 112 108 111 109 105 101 97 100 93 88 102 94 101 108 109 107 103 103 102 98 100 99 101 97 93 91 90 93 101 94 86 82 81 84 88 90 89 88 88 88 88 89 87 87 86
322 54 342 245 259 133 328 42 37 252 220 163 110 144 187 191 141 128 109 121 121 141 175 152 155 71 356 9 44 295 92 73 152 169 137 149 123 148 153 150 151 147 150 151 150 144 130 122 129 126 123 121 116 113 114 111 107 103 103 98 95 100 94 84 93 106 113 104 104 105 104 102 104 103 94 93 93 92 92 88 77 82 87 88 89 95 94 95 94 93 92 92 91 89 89 88 86
92 346 56 259 303 28 168 181 175 222 35 336 151 157 178 170 146 135 133 139 122 278 355 171 318 155 180 77 2 345 127 152 134 176 161 155 153 153 152 157 151 152 151 151 150 148 139 130 140 132 128 127 122 121 118 118 114 113 115 110 105 92 94 95 103 110 107 102 101 104 103 102 102 102 98 91 91 97 91 87 90 87 90 95 96 91 89 92 94 95 92 90 91 89 85 85 86
320 270 140 105 114 248 265 207 203 241 89 332 13 106 164 148 138 135 144 148 156 69 213 181 170 122 185 126 162 60 15 39 168 158 182 145 152 159 154 159 155 152 153 153 152 145 139 135 146 138 136 134 129 127 127 123 124 122 119 117 106 99 103 101 98 102 106 102 103 106 106 106 107 102 98 99 98 97 103 96 92 90 87 90 92 93 91 90 90 91 91 90 86 85 86 86 86
100 271 31 230 96 264 175 344 259 247 85 327 10 342 132 149 147 158 157 177 163 194 167 152 216 262 54 297 263 105 47 203 43 152 155 156 158 161 163 159 159 152 155 153 152 145 134 141 146 144 143 136 132 131 127 127 126 127 123 118 112 93 102 106 104 105 107 107 107 105 109 113 112 103 99 99 94 90 91 99 104 102 94 87 90 93 91 92 92 91 91 90 91 90 90 90 89
20 283 250 195 158 63 163 210 85 40 352 189 237 275 341 159 175 156 162 108 109 212 156 163 151 218 129 157 77 103 141 124 127 177 156 158 166 162 167 166 162 155 155 157 154 147 150 124 147 152 143 139 137 134 132 133 132 131 129 126 113 108 106 114 116 103 102 107 107 108 110 113 109 109 105 104 105 105 95 92 89 88 91 97 96 92 94 93 94 93 90 92 90 93 93 91 87
159 286 170 71 47 185 326 149 211 128 309 69 316 119 172 168 186 191 156 155 147 154 127 74 156 302 142 135 129 174 126 97 142 164 158 163 168 167 167 170 166 158 157 160 157 157 146 128 149 158 147 142 140 137 137 136 135 132 134 129 122 112 106 110 110 101 102 111 111 112 114 115 120 116 113 109 104 101 103 99 94 96 96 95 95 96 88 89 92 93 94 94 93 92 91 86 85
235 61 351 186 188 186 209 141 180 144 182 68 245 203 185 167 192 162 155 115 105 167 131 181 180 149 174 110 51 63 72 125 158 162 161 166 172 168 169 173 168 169 162 163 161 164 153 160 146 161 144 144 138 136 138 136 135 136 133 132 124 117 110 106 109 107 113 111 114 117 119 117 116 115 111 110 109 99 93 93 94 93 94 95 95 89 90 88 90 95 95 95 97 95 92 92 90
197 185 200 187 196 234 147 160 146 113 151 199 159 152 159 171 179 170 170 167 166 164 165 193 115 149 136 136 133 129 119 148 172 162 159 163 172 173 168 172 173 173 167 165 163 164 164 155 166 151 145 144 143 135 138 133 135 135 134 131 129 120 118 119 114 121 118 119 118 118 119 119 119 116 109 99 99 98 101 100 97 94 101 99 94 93 95 96 96 96 97 98 100 101 98 97 92
272 255 168 190 71 251 64 198 126 42 157 193 160 150 146 167 186 198 171 95 160 163 172 188 45 253 147 143 78 126 168 166 174 164 162 163 170 171 167 174 173 171 167 171 172 166 171 168 168 170 149 144 144 138 136 135 132 130 133 135 135 126 119 123 120 117 124 127 123 121 110 101 95 98 86 89 106 109 102 96 107 112 105 105 102 100 97 97 98 99 98 103 102 102 104 100 95
220 246 194 178 359 115 180 70 93 189 176 117 73 124 169 183 201 290 154 176 177 197 51 100 190 259 86 139 145 164 169 156 168 163 161 161 163 169 171 167 165 173 174 176 178 173 173 176 175 168 164 169 157 147 137 136 133 134 133 135 133 128 120 105 99 83 75 84 114 110 106 102 95 74 59 62 80 89 79 70 91 102 107 101 99 99 96 97 98 100 102 101 101 100 100 96 90
161 219 77 102 125 199 88 201 174 200 139 146 121 155 169 252 13 184 205 226 146 39 76 309 334 257 120 199 149 176 154 159 161 160 160 158 160 164 170 167 167 173 175 184 179 178 180 178 178 173 180 175 168 165 161 141 136 132 132 133 132 130 120 94 86 89 88 91 101 103 101 94 75 65 67 67 77 90 86 75 67 98 107 100 98 102 103 100 99 101 102 103 102 103 99 88 89
153 152 81 158 152 231 155 210 265 211 135 159 126 61 167 112 254 188 138 347 80 65 240 159 173 326 342 244 91 102 135 151 156 158 156 157 157 158 166 172 172 173 178 185 183 187 186 180 181 177 188 185 181 172 165 154 137 135 135 134 133 128 119 108 101 90 92 94 94 104 104 110 105 85 79 80 68 81 92 107 112 101 108 107 106 109 109 108 107 109 110 111 109 108 93 86 86
259 266 161 112 185 222 148 195 168 188 104 128 131 178 177 174 127 307 347 262 196 140 220 8 191 324 349 51 75 93 129 143 148 157 156 159 160 163 167 175 177 177 187 189 189 188 188 185 183 179 195 191 184 181 170 160 132 134 137 128 129 125 123 116 108 109 111 108 113 111 130 139 138 132 135 112 104 91 87 86 91 100 114 111 110 116 115 116 116 115 113 119 115 96 85 75 70
233 182 156 187 73 207 164 184 185 20 156 157 178 193 183 167 163 129 174 155 64 127 217 113 151 238 24 78 354 93 134 151 159 162 166 165 170 170 176 179 184 186 186 191 193 193 188 186 188 189 188 193 196 185 179 160 143 169 161 159 158 139 127 130 145 144 136 128 124 145 152 146 146 151 136 129 124 125 99 77 80 80 87 100 113 121 118 117 118 120 128 124 109 110 122 116 98
162 93 225 203 184 83 185 155 136 155 125 156 165 187 227 157 164 163 205 168 182 187 207 211 224 180 152 182 151 150 153 159 167 173 172 175 181 181 185 181 187 189 191 189 196 196 192 186 192 193 192 192 195 194 187 165 168 185 171 173 162 167 155 165 161 155 160 151 159 159 159 152 150 152 141 91 91 60 78 80 80 81 88 95 105 110 123 117 122 124 122 101 102 116 134 136 135
39 217 183 186 166 68 265 167 149 29 135 141 153 172 233 98 196 132 239 145 165 219 194 199 231 207 187 147 156 157 165 172 178 179 183 184 187 188 191 190 189 194 194 193 192 196 193 194 193 195 194 193 192 196 198 182 178 192 185 179 173 177 175 179 169 170 165 163 163 171 162 146 157 141 90 115 125 136 100 82 84 82 72 72 104 107 90 82 99 93 87 110 130 146 134 147 152
131 215 195 147 146 160 144 229 96 132 283 148 143 128 180 150 139 195 157 189 218 233 235 214 210 212 172 152 160 161 169 177 187 191 191 192 194 196 197 197 194 192 193 190 194 195 196 196 191 193 195 197 199 197 198 195 189 188 196 187 185 182 183 184 178 176 169 167 170 171 154 151 163 151 162 158 176 162 165 160 152 160 159 145 150 142 159 144 169 149 148 178 137 136 143 146 168
134 27 5 53 133 185 105 161 69 153 291 143 138 153 170 113 144 194 185 222 190 226 244 237 275 287 159 160 164 168 174 183 189 195 198 196 195 198 200 201 202 198 187 194 195 195 197 198 195 192 196 199 200 205 202 191 190 199 193 200 187 189 186 188 186 180 176 179 178 165 156 162 167 164 169 169 169 172 176 177 177 175 172 169 174 178 163 171 182 173 166 156 138 141 140 153 170
175 127 88 51 342 327 101 167 163 189 148 154 163 138 109 172 153 152 231 230 54 47 34 354 335 360 92 135 150 172 181 189 193 199 199 200 200 201 202 201 200 201 197 203 195 199 198 194 195 196 196 200 203 207 210 202 201 202 201 194 197 193 191 191 193 190 186 180 180 170 172 172 173 172 173 175 176 177 183 182 181 175 180 181 186 175 150 173 198 175 166 145 131 129 132 141 153
266 141 141 107 333 86 342 128 123 225 182 150 99 119 166 162 188 118 224 232 78 90 19 359 352 98 138 150 171 177 186 190 196 200 201 202 201 202 203 204 205 205 204 204 204 203 202 198 192 193 198 199 203 207 206 209 209 204 198 178 197 196 195 197 197 199 187 185 185 185 186 177 177 174 176 177 181 183 184 180 178 173 178 171 174 172 168 180 192 179 157 133 145 146 145 159 163
153 125 175 111 36 45 22 97 149 158 71 75 142 159 117 200 125 131 239 236 216 230 22 74 96 124 172 176 177 184 191 200 203 203 206 211 209 209 211 212 209 208 210 207 206 208 205 203 196 194 195 201 202 202 210 211 213 215 201 187 192 181 204 207 202 199 195 194 188 191 190 183 183 179 177 179 183 190 181 181 182 186 178 173 174 176 177 182 186 179 169 172 170 173 167 171 169
171 104 132 131 101 82 87 102 88 117 112 168 153 125 86 125 87 249 240 121 10 342 174 117 132 159 192 197 187 185 191 198 200 201 206 206 210 210 212 213 211 211 211 209 208 210 209 204 205 200 196 196 201 202 207 211 212 215 216 205 200 174 210 212 206 201 204 198 195 196 197 196 187 184 178 180 187 191 190 183 189 184 184 176 181 183 181 188 187 180 176 176 178 180 182 166 183
107 112 112 114 109 115 312 149 106 342 96 284 172 152 116 164 247 218 78 48 343 218 179 134 202 200 196 198 195 197 197 199 197 198 204 210 213 215 214 213 214 214 208 210 209 211 207 203 209 205 203 195 195 202 206 207 213 217 215 214 200 190 202 210 207 207 207 203 208 201 203 206 196 189 181 181 188 190 195 189 194 184 186 182 185 183 179 192 187 188 185 185 188 188 182 167 199
113 121 104 86 106 81 101 105 90 232 104 331 208 117 85 116 166 243 119 62 343 203 191 184 222 222 198 201 197 200 209 203 196 198 205 205 210 212 212 210 211 210 210 211 208 208 210 210 209 209 208 197 198 200 204 209 208 215 220 213 212 199 202 204 209 210 198 208 210 207 208 208 203 193 183 180 190 195 200 195 192 189 192 183 184 181 178 187 188 167 159 176 176 187 173 176 191
138 152 123 112 142 119 21 105 33 302 116 266 314 132 203 177 230 160 81 19 59 178 198 199 220 227 220 207 207 207 209 195 196 206 212 211 210 213 216 214 209 208 212 210 208 208 212 210 212 211 212 207 207 207 201 208 210 207 212 220 214 206 203 196 200 205 187 183 190 207 214 213 202 201 188 185 192 207 206 198 195 195 195 186 185 175 170 174 176 171 165 174 183 190 187 181 181
148 22 115 125 166 167 33 284 311 254 94 352 255 235 204 206 210 118 85 347 173 194 204 200 215 222 222 215 220 220 205 202 209 214 213 213 211 213 218 213 211 210 206 206 206 209 207 211 210 209 209 214 210 214 212 208 207 212 211 212 213 212 210 208 201 203 205 179 176 185 208 209 203 204 197 189 192 200 198 199 200 195 193 177 174 167 180 183 181 178 178 187 188 197 199 196 191
165 144 232 187 170 188 68 9 345 183 41 308 238 249 180 118 70 79 69 210 239 223 191 189 213 231 233 228 230 228 219 214 219 219 219 217 215 216 219 216 212 212 209 207 208 208 204 209 206 214 210 213 204 213 214 217 209 208 207 215 213 209 202 205 206 202 208 202 180 185 184 187 196 201 198 197 195 202 199 197 201 197 181 177 179 185 188 190 190 187 181 190 183 197 199 200 207
59 147 192 80 221 135 103 76 2 200 125 346 220 262 254 189 160 102 47 156 183 232 216 188 210 228 234 237 239 238 232 221 229 232 227 225 222 223 219 219 213 211 214 213 209 205 210 208 207 214 208 215 217 217 220 221 220 216 210 210 215 211 206 208 204 207 213 217 208 193 191 190 193 196 194 196 195 197 199 199 199 192 174 179 186 177 189 200 202 200 198 198 187 200 195 197 202
302 275 110 177 240 144 173 100 23 349 306 40 261 268 37 212 53 119 94 102 136 222 248 242 233 228 226 232 234 243 245 231 230 231 230 225 225 223 222 220 216 215 215 215 211 207 213 210 210 215 216 212 214 209 207 218 217 217 222 214 215 214 220 223 217 210 211 210 202 198 189 192 199 199 193 190 193 198 201 199 194 179 173 186 188 185 192 195 192 193 198 213 222 209 202 197 191
185 347 151 69 193 158 204 86 158 8 286 199 114 249 236 64 170 180 186 286 330 262 244 243 237 222 220 226 237 241 242 243 235 225 223 216 222 220 221 221 220 218 219 219 216 213 212 212 211 216 219 221 221 219 216 217 218 222 221 219 213 218 213 219 224 212 204 205 207 215 202 200 203 202 200 199 206 206 205 202 192 182 182 188 188 189 199 194 192 192 201 205 213 220 208 205 196
167 178 146 170 324 250 358 169 125 278 12 238 85 260 260 249 224 223 212 185 273 267 262 257 248 240 231 231 234 238 241 240 242 232 217 209 219 223 221 220 219 220 218 217 218 217 217 213 214 216 220 221 220 220 219 221 221 223 228 232 225 221 224 224 222 215 204 200 203 208 214 199 192 190 196 207 218 216 209 210 212 187 181 188 190 192 196 197 200 200 206 192 193 206 228 207 178
186 170 166 129 171 194 211 106 84 240 189 217 204 228 244 250 260 257 199 187 245 271 273 264 252 244 245 241 241 236 237 243 242 225 220 225 220 220 219 216 218 218 220 219 218 217 218 217 217 220 220 222 223 224 220 219 220 221 220 218 221 219 220 220 216 215 205 202 204 206 204 194 191 200 199 198 206 209 208 213 211 175 176 182 188 197 200 196 196 191 197 187 168 149 160 142 120
116 128 126 165 168 114 36 77 55 303 226 226 225 247 267 267 262 268 258 158 252 262 257 249 247 238 230 228 230 233 233 242 66 284 248 234 230 223 218 218 220 220 221 218 213 214 215 215 212 220 217 217 220 220 219 214 212 221 226 222 217 208 210 212 215 213 208 203 199 205 198 193 198 201 203 200 203 205 210 213 201 171 177 182 194 208 205 197 191 187 180 153 158 157 166 144 127
151 157 172 159 228 172 102 116 67 49 248 173 63 260 260 259 260 259 259 206 248 238 242 242 243 237 229 225 236 230 236 251 253 255 232 220 223 213 209 214 213 214 219 214 215 214 212 213 213 215 214 217 220 220 219 219 216 215 219 225 228 229 226 220 220 208 204 199 197 202 212 210 208 212 199 196 201 200 205 207 204 198 189 196 202 190 187 175 164 178 164 172 192 183 188 169 158
89 170 166 155 179 69 119 103 100 69 199 246 119 253 256 253 252 251 240 236 241 233 237 248 247 239 235 231 240 247 251 253 233 250 239 241 224 217 208 214 217 224 226 215 219 216 213 211 216 216 212 212 222 222 222 222 220 217 215 226 227 234 240 243 235 230 224 230 226 219 212 213 216 214 201 207 207 216 200 197 200 203 197 190 177 176 169 178 185 184 180 182 175 203 190 177 181
136 123 164 198 131 181 186 158 144 70 311 344 315 281 275 265 250 247 244 237 253 271 278 270 262 257 248 242 246 268 272 266 255 248 250 230 225 220 207 220 221 217 224 223 213 212 210 213 213 212 214 215 221 223 223 226 225 228 225 233 230 236 233 266 247 224 212 224 228 217 213 209 206 210 205 200 207 217 205 201 197 190 194 188 198 201 193 196 188 187 187 199 189 184 201 205 199
334 248 163 133 159 229 345 137 138 134 130 267 246 257 266 223 249 229 135 266 276 264 250 246 247 242 259 281 282 256 260 264 267 263 255 245 239 240 234 217 204 215 221 219 208 203 210 213 211 210 211 214 220 225 217 223 225 224 230 236 253 276 264 254 241 234 217 214 223 215 209 193 202 205 203 208 210 212 207 208 199 193 189 191 197 206 203 198 195 197 193 196 194 201 196 184 191
171 248 230 186 184 141 99 118 145 181 196 70 348 275 249 267 247 249 326 314 238 191 260 243 217 243 240 258 260 240 237 248 255 261 261 255 251 259 255 234 215 224 225 217 207 207 208 209 206 204 209 211 216 221 220 214 216 217 213 214 217 226 236 232 230 232 233 235 235 236 238 228 222 211 205 203 209 208 208 207 200 195 195 194 198 199 202 205 207 205 201 201 203 205 191 175 189
176 196 161 188 154 125 134 144 183 184 217 82 314 242 268 111 276 162 331 310 283 237 233 264 261 255 250 265 276 263 259 254 243 252 259 257 248 243 249 244 234 233 229 194 203 211 209 210 203 202 206 207 207 212 211 208 214 217 216 215 217 218 226 231 230 233 235 235 236 244 245 244 241 234 217 206 204 201 209 208 206 204 200 199 198 202 207 207 202 202 196 198 202 199 195 204 194
205 59 150 126 135 139 158 148 232 54 38 129 88 4 276 292 260 41 317 284 276 273 210 205 197 251 280 312 308 301 295 273 268 266 261 252 257 251 256 262 251 260 304 201 205 196 200 203 199 201 203 203 196 206 207 204 208 212 215 218 220 224 225 233 229 235 237 244 234 224 225 221 219 227 222 208 209 212 214 214 207 206 200 202 198 201 205 197 184 197 195 200 202 201 206 214 206
166 168 240 141 133 115 136 138 105 50 271 219 110 349 261 242 269 85 339 275 238 244 155 147 85 48 26 10 7 347 331 318 292 276 280 279 271 262 262 260 10 318 252 215 196 189 190 192 196 196 200 197 196 204 204 205 209 211 212 216 222 226 231 234 236 236 237 232 240 235 231 225 222 220 227 223 217 219 217 220 213 211 206 204 197 210 221 219 208 198 193 196 205 204 204 211 212
237 135 99 102 92 77 73 115 105 151 205 243 138 349 246 269 191 259 9 310 267 237 95 83 42 42 359 8 18 5 360 350 328 290 295 314 323 335 315 308 60 53 10 232 161 162 173 179 188 189 196 194 193 202 204 205 207 209 211 216 220 225 227 238 242 239 237 238 240 241 236 231 225 222 222 228 223 216 219 220 217 208 206 202 198 203 207 207 207 207 205 203 203 206 207 210 216
130 183 112 89 65 62 65 51 62 147 241 221 49 329 283 293 226 218 167 208 289 92 119 149 189 157 125 147 356 356 359 358 2 354 30 22 33 24 37 75 69 72 63 65 91 119 135 167 172 184 185 187 196 201 201 205 207 210 217 220 224 228 232 235 231 232 231 230 233 237 237 237 233 230 223 227 231 231 228 222 224 228 220 207 200 202 204 205 203 204 201 202 201 201 202 206 218
155 146 130 110 61 98 93 69 336 218 236 89 346 334 289 216 256 255 242 315 232 331 128 128 114 92 77 78 34 5 355 347 334 2 75 103 123 98 112 94 88 93 101 93 95 111 144 151 167 171 177 193 193 196 200 207 209 215 221 225 230 233 236 236 238 238 232 232 234 242 244 243 239 235 233 234 230 227 229 226 220 224 221 216 209 207 213 215 211 210 210 207 209 209 216 216 221
209 143 152 154 143 139 184 172 211 208 234 79 349 249 228 237 252 309 276 243 199 212 237 161 315 296 294 1 356 356 346 319 333 2 29 90 94 100 96 102 114 109 104 106 111 117 127 145 160 162 169 180 187 193 199 207 212 219 222 227 233 238 239 240 244 246 245 241 239 241 242 242 241 238 233 234 236 230 230 230 225 223 223 215 208 202 209 206 204 203 202 203 205 202 207 211 217
183 165 160 155 158 172 207 176 354 332 3 8 92 7 266 313 269 249 245 207 146 206 231 257 266 281 309 323 329 338 336 325 332 323 332 11 63 88 99 118 125 131 133 132 132 140 142 152 161 159 156 169 168 187 200 205 215 222 224 228 235 238 241 243 245 247 246 244 244 242 240 243 244 238 237 234 234 235 235 233 231 233 232 228 214 211 204 205 202 206 206 210 208 207 206 210 217
199 9 187 195 157 158 188 171 201 215 111 109 216 212 234 160 210 36 284 6 62 231 260 269 262 266 276 287 282 279 284 47 1 341 336 347 9 352 47 68 79 83 101 118 131 121 136 139 154 153 146 167 176 183 191 203 210 213 216 223 229 232 240 242 244 246 248 247 245 246 246 246 249 250 243 241 233 232 234 236 234 235 237 237 235 227 216 212 211 217 219 216 214 200 202 209 220
31 246 24 168 208 27 202 63 3 117 140 149 198 237 315 251 25 261 236 261 266 220 240 234 258 208 244 272 221 116 62 50 33 325 290 258 278 260 164 149 133 131 111 88 116 129 147 139 144 145 150 161 178 183 194 200 205 204 212 220 224 229 236 242 246 245 249 253 256 255 256 253 251 249 240 233 221 225 237 236 232 232 233 237 240 242 237 226 216 218 221 218 220 198 213 217 220
177 143 199 131 24 99 115 111 111 309 326 244 128 278 251 277 284 260 126 190 207 143 169 195 231 227 231 248 231 122 44 37 70 315 182 129 160 186 194 166 159 155 158 155 145 153 143 140 156 159 155 161 183 194 200 201 205 204 210 214 220 225 232 238 243 249 254 258 259 262 262 264 259 247 249 236 238 224 227 236 242 239 231 229 233 236 239 238 229 223 225 224 225 212 218 224 220
105 216 169 121 215 128 155 192 93 315 244 246 116 232 250 122 259 35 306 183 211 190 198 188 147 158 214 193 78 64 38 16 13 304 290 271 153 141 149 145 95 102 114 125 119 135 142 139 156 154 159 165 164 189 208 210 220 227 230 224 227 229 236 241 246 255 258 262 260 260 263 264 257 250 247 251 247 243 234 228 234 236 230 227 227 232 235 238 239 241 239 233 226 211 220 227 226
299 12 128 167 161 197 45 130 192 168 216 254 205 292 276 229 227 319 219 209 211 195 168 169 179 184 193 159 105 84 80 108 118 145 161 156 138 119 109 100 64 49 48 62 86 112 124 114 88 26 38 41 34 40 251 215 231 244 243 247 243 240 243 251 256 256 261 260 260 257 260 266 267 251 249 249 244 248 247 238 232 238 236 233 229 230 237 237 236 241 242 243 239 234 234 235 234
59 154 126 336 288 315 160 204 25 218 230 83 257 108 258 176 218 228 237 206 319 112 146 204 179 179 163 136 125 109 119 129 135 134 130 118 107 94 95 92 85 65 54 41 53 75 84 75 65 51 16 6 360 341 330 306 276 264 272 273 259 257 261 259 260 263 262 261 268 273 275 274 272 275 265 253 250 246 246 248 247 242 243 242 238 232 236 233 230 233 238 241 240 235 239 240 241
124 175 167 143 52 312 353 47 152 222 191 197 284 257 223 210 216 228 239 89 65 110 191 187 171 165 121 142 135 137 139 141 137 129 127 123 116 116 107 87 74 65 54 39 51 104 115 125 122 121 116 116 85 332 299 298 306 278 274 278 287 285 280 274 273 266 268 269 273 274 274 277 284 274 275 271 267 260 256 252 250 249 247 246 246 243 241 237 236 239 236 236 240 240 237 244 247
187 170 186 179 138 149 177 210 82 7 211 213 168 247 36 285 114 218 225 118 169 227 255 262 231 207 193 159 143 145 147 143 134 115 93 116 124 115 111 115 142 157 126 107 119 143 133 111 125 126 145 111 97 97 48 303 236 227 226 249 264 282 284 289 281 273 266 269 268 271 279 279 272 276 271 267 267 269 265 264 262 260 259 257 257 254 249 245 246 246 241 237 241 242 247 240 228